Evans Head Observation History
Time Wind Speed Temp Pressure Rel. Hum Rain
01/06:30am WSW 8-10 kts 19.9°c 1017.2 hPa 89% 0.0mm
01/06:00am WSW 9-12 kts 19.9°c 1016.8 hPa 90% 0.0mm
01/05:30am WSW 8-12 kts 19.9°c 1016.7 hPa 90% 0.0mm
01/05:00am SW 9-12 kts 19.9°c 1016.4 hPa 90% 0.0mm
01/04:30am SW 8-11 kts 19.9°c 1016.2 hPa 91% 0.0mm
01/04:00am WSW 8-11 kts 19.9°c 1016.2 hPa 91% 0.0mm
01/03:30am WSW 9-11 kts 20.1°c 1016.2 hPa 91% 0.0mm
01/03:00am WSW 8-11 kts 20.0°c 1016.3 hPa 92% 0.0mm
01/02:30am WSW 8-11 kts 20.3°c 1016.3 hPa 91% 0.0mm
01/02:00am WSW 8-10 kts 20.3°c 1016.5 hPa 92% 0.0mm
01/01:30am WSW 8-9 kts 20.5°c 1016.6 hPa 92% 0.0mm
01/01:00am WSW 6-8 kts 21.0°c 1016.8 hPa 92% 0.0mm
01/12:30am SW 5-7 kts 21.2°c 1016.8 hPa 90% 0.0mm
01/12:00am SW 6-7 kts 21.3°c 1017.0 hPa 91% 0.0mm
Time Wind Speed Temp Pressure Rel. Hum Rain
31/11:30pm SW 4-7 kts 21.6°c 1017.0 hPa 88% 0.0mm
31/11:00pm SSE 8-10 kts 22.3°c 1017.0 hPa 84% 0.0mm
31/10:30pm SSE 9-11 kts 22.7°c 1017.1 hPa 82% 0.0mm
31/10:00pm SSE 9-13 kts 22.8°c 1017.1 hPa 82% 0.0mm
31/09:30pm SSE 10-13 kts 23.2°c 1016.9 hPa 82% 0.0mm
31/09:00pm SE 10-14 kts 23.6°c 1016.6 hPa 82% 0.0mm
31/08:30pm SSE 11-15 kts 23.2°c 1016.3 hPa 85% 0.0mm
31/08:00pm SSE 12-18 kts 22.8°c 1015.8 hPa 85% 0.0mm
31/07:30pm SSE 11-15 kts 22.8°c 1015.4 hPa 85% 0.0mm
31/07:00pm SSE 11-15 kts 22.7°c 1015.1 hPa 85% 0.0mm
31/06:30pm SSE 12-16 kts 22.9°c 1015.0 hPa 83% 0.0mm
31/06:00pm SSE 13-17 kts 23.7°c 1014.8 hPa 79% 0.0mm
31/05:30pm SSE 13-17 kts 24.4°c 1014.6 hPa 76% 0.0mm
31/05:00pm SSE 13-18 kts 24.9°c 1014.3 hPa 74% 0.0mm
31/04:30pm SSE 14-20 kts 25.2°c 1014.0 hPa 72% 0.0mm
31/04:00pm S 13-18 kts 25.6°c 1014.0 hPa 70% 0.0mm
31/03:30pm SSE 14-19 kts 25.9°c 1013.9 hPa 70% 0.0mm
31/03:00pm SSE 13-17 kts 26.1°c 1013.9 hPa 71% 0.0mm
31/02:30pm SSE 11-14 kts 26.2°c 1014.0 hPa 68% 0.0mm
31/02:00pm S 13-17 kts 25.7°c 1014.3 hPa 67% 0.0mm
31/01:30pm S 11-16 kts 26.0°c 1014.4 hPa 66% 0.0mm
31/01:00pm SSW 12-17 kts 25.7°c 1014.8 hPa 67% 0.0mm
31/12:30pm SSW 10-14 kts 25.9°c 1015.3 hPa 69% 0.0mm
31/12:00pm S 10-15 kts 25.4°c 1015.6 hPa 67% 0.0mm
31/11:30am S 10-15 kts 25.7°c 1015.8 hPa 69% 0.0mm
31/11:00am SW 6-10 kts 24.6°c 1015.8 hPa 69% 0.0mm
31/10:30am SW 8-12 kts 23.2°c 1015.8 hPa 74% 0.0mm
31/10:00am SW 7-11 kts 23.2°c 1015.7 hPa 77% 0.0mm
31/09:30am W 5-8 kts 22.8°c 1015.5 hPa 84% 0.0mm
31/09:00am W 4-5 kts 20.2°c 1015.1 hPa 95% 9.2mm
31/08:30am S 3-5 kts 19.5°c 1014.7 hPa 95% 9.2mm
31/08:00am SSW 3-5 kts 19.5°c 1014.3 hPa 93% 9.2mm
31/07:30am SSW 3-4 kts 19.6°c 1013.9 hPa 95% 9.2mm
31/07:00am NNW 4-6 kts 19.4°c 1013.6 hPa 95% 9.2mm
31/06:30am WNW 6-8 kts 19.7°c 1013.2 hPa 96% 9.2mm
31/06:00am WNW 7-9 kts 19.4°c 1013.0 hPa 97% 9.2mm
31/05:30am NNW 5-6 kts 18.8°c 1013.1 hPa 97% 9.2mm
31/05:00am N 3-4 kts 18.8°c 1013.3 hPa 96% 9.2mm
31/04:30am NNW 3-4 kts 18.8°c 1013.3 hPa 96% 9.2mm
31/04:00am N 4-6 kts 19.0°c 1013.1 hPa 96% 9.2mm
31/03:30am N 4-5 kts 18.9°c 1013.3 hPa 96% 9.2mm
31/03:00am N 2-4 kts 19.1°c 1013.7 hPa 95% 9.2mm
31/02:30am W 4-5 kts 19.3°c 1013.9 hPa 95% 9.2mm
31/02:00am NW 3-4 kts 19.2°c 1013.9 hPa 96% 9.2mm
31/01:30am W 3-5 kts 18.9°c 1014.0 hPa 97% 9.2mm
31/01:00am WNW 5-6 kts 19.0°c 1014.2 hPa 97% 9.2mm
31/12:30am WNW 5-7 kts 18.9°c 1014.5 hPa 97% 9.2mm
31/12:00am NNW 6-8 kts 19.0°c 1014.5 hPa 97% 9.2mm
Time Wind Speed Temp Pressure Rel. Hum Rain
30/11:30pm NNW 6-7 kts 19.1°c 1014.5 hPa 97% 9.2mm
30/11:00pm N 6-8 kts 19.0°c 1014.5 hPa 96% 9.2mm
30/10:30pm N 7-8 kts 19.1°c 1014.8 hPa 96% 9.2mm
30/10:00pm N 6-8 kts 19.2°c 1014.9 hPa 96% 9.2mm
30/09:30pm WSW 3-5 kts 19.2°c 1015.8 hPa 95% 9.0mm
30/09:00pm WSW 8-12 kts 19.3°c 1016.3 hPa 94% 7.0mm
30/08:30pm SW 15-26 kts 20.4°c 1016.3 hPa 84% 1.0mm
30/08:29pm SW 14-26 kts 20.5°c 1016.3 hPa 82% 0.8mm
30/08:23pm NNW 8-21 kts 23.0°c 1016.4 hPa 81% 0.0mm
30/08:00pm N 9-13 kts 22.9°c 1014.4 hPa 83% 0.0mm
30/07:30pm NNE 8-10 kts 22.7°c 1014.1 hPa 83% 0.0mm
30/07:00pm N 9-12 kts 22.7°c 1013.8 hPa 83% 0.0mm
30/06:30pm NNE 9-13 kts 23.2°c 1013.9 hPa 80% 0.0mm
30/06:00pm NNE 9-14 kts 23.6°c 1013.9 hPa 78% 0.0mm
30/05:30pm NNE 9-17 kts 24.1°c 1013.5 hPa 77% 0.0mm
30/05:00pm NNE 9-17 kts 25.1°c 1013.3 hPa 71% 0.0mm
30/04:30pm NNE 10-18 kts 25.5°c 1013.3 hPa 72% 0.0mm
30/04:00pm NNE 9-14 kts 25.9°c 1013.5 hPa 67% 0.0mm
30/03:30pm NE 9-13 kts 26.4°c 1013.6 hPa 68% 0.0mm
30/03:00pm NE 8-13 kts 27.4°c 1013.7 hPa 64% 0.0mm
30/02:30pm NE 8-13 kts 28.3°c 1014.1 hPa 65% 0.0mm
30/02:00pm NNW 8-11 kts 29.5°c 1014.4 hPa 54% 0.0mm
30/01:30pm N 8-13 kts 28.7°c 1014.8 hPa 59% 0.0mm
30/01:00pm NNW 7-12 kts 28.7°c 1015.1 hPa 56% 0.0mm
30/12:30pm NNE 5-9 kts 27.7°c 1015.7 hPa 62% 0.0mm
30/12:00pm N 7-10 kts 28.1°c 1016.4 hPa 63% 0.0mm
30/11:30am N 6-9 kts 27.7°c 1016.6 hPa 64% 0.0mm
30/11:00am NW 4-7 kts 25.9°c 1016.8 hPa 69% 0.0mm
30/10:30am WNW 5-7 kts 25.0°c 1016.9 hPa 70% 0.0mm
30/10:00am WNW 5-8 kts 23.9°c 1016.7 hPa 75% 0.0mm
30/09:30am NW 3-6 kts 23.0°c 1016.7 hPa 76% 0.0mm
30/09:00am NW 6-9 kts 22.0°c 1016.8 hPa 84% 1.2mm
30/08:30am NW 4-6 kts 20.4°c 1016.7 hPa 95% 1.2mm
30/08:00am WNW 5-7 kts 18.8°c 1016.5 hPa 96% 1.2mm
30/07:30am NW 5-7 kts 17.1°c 1016.2 hPa 95% 1.2mm
30/07:00am NW 5-6 kts 17.1°c 1016.0 hPa 94% 1.2mm
30/06:30am W 6-7 kts 18.2°c 1015.8 hPa 95% 1.2mm
30/06:00am W 6-7 kts 18.0°c 1015.7 hPa 95% 1.2mm
30/05:30am W 6-7 kts 18.0°c 1015.6 hPa 95% 1.2mm
30/05:00am W 6-7 kts 18.2°c 1015.7 hPa 95% 1.2mm
30/04:30am WNW 6-7 kts 18.2°c 1015.9 hPa 93% 1.2mm
30/04:00am W 5-6 kts 18.9°c 1016.1 hPa 93% 1.2mm
30/03:30am W 5-6 kts 19.1°c 1016.2 hPa 91% 1.2mm
30/03:00am W 6-7 kts 19.2°c 1016.6 hPa 92% 1.2mm
30/02:30am W 7-8 kts 19.2°c 1017.1 hPa 92% 1.2mm
30/02:00am W 7 kts 19.3°c 1017.2 hPa 93% 1.2mm
30/01:30am WSW 6-7 kts 19.5°c 1017.5 hPa 92% 1.2mm
30/01:00am WSW 6-7 kts 19.7°c 1017.7 hPa 91% 1.0mm
30/12:30am WSW 6-8 kts 19.9°c 1017.8 hPa 92% 1.0mm
30/12:00am WSW 6-9 kts 19.8°c 1018.1 hPa 92% 1.0mm